Vorticity
10 13 10 12 10 9 12 10 15 13 14 24 23 29 25 21 19 20 22 22 18 16 19 26 22 27 13 20 15 11 25 17 10 1 28 8 14 14 11 21 15 5 4 6
11 12 12 9 11 11 9 11 13 14 16 13 24 18 23 18 18 18 14 19 24 22 20 19 16 15 30 15 18 -5 -13 57 31 12 -4 20 21 4 4 14 12 19 9 15
11 11 11 11 11 12 14 15 13 12 16 17 22 13 21 18 19 17 16 12 13 18 19 24 22 28 19 20 48 -1 33 -40 44 14 35 -20 -2 6 14 11 1 9 14 26
11 10 11 9 13 12 14 8 10 9 10 15 19 10 10 18 20 18 14 16 13 12 13 13 17 19 19 35 8 38 5 7 10 -33 21 36 28 12 3 26 22 -9 -1 10
11 11 11 9 12 13 9 7 13 11 15 14 15 10 6 16 21 18 17 15 19 18 14 14 13 18 19 17 25 21 26 54 4 16 -1 -35 2 8 28 -41 -20 37 22 3
10 11 9 10 12 9 8 7 9 14 14 16 7 14 7 10 16 26 16 21 27 17 2 3 16 16 15 17 21 23 42 2 55 3 -12 7 8 12 -0 6 12 -0 -9 9
12 11 8 11 9 8 7 10 12 16 18 13 10 13 9 6 15 19 25 15 20 -10 12 12 12 9 13 10 15 25 29 37 26 31 35 5 -0 9 16 27 16 21 -1 3
13 9 11 13 7 2 7 15 14 15 18 13 12 8 12 6 12 19 28 18 7 18 11 10 9 13 21 8 10 16 20 20 29 50 2 44 5 14 -6 -10 -5 -4 25 11
8 11 9 18 4 2 12 15 17 21 20 10 12 8 16 6 9 20 25 21 -3 5 8 5 5 1 10 8 5 10 17 5 16 28 34 30 15 6 16 22 15 2 2 3
8 9 14 17 5 6 16 18 21 22 18 12 11 9 15 9 7 15 20 35 11 9 7 4 -1 -3 -1 14 6 1 8 19 21 13 23 30 34 34 28 5 27 12 11 13
8 11 15 5 5 15 14 19 24 21 18 13 11 12 10 9 6 9 16 18 22 27 11 11 20 18 10 3 7 7 -1 1 23 13 9 21 18 26 14 29 38 17 12 7
9 12 8 2 19 12 16 25 27 20 17 13 10 9 16 9 8 7 13 15 15 16 22 23 9 5 12 16 8 2 2 3 25 6 11 9 16 20 23 9 18 20 27 44
13 10 2 13 13 17 19 30 20 17 18 13 9 13 12 12 8 5 11 13 13 13 12 11 12 22 28 17 12 8 10 16 17 9 9 5 12 7 13 25 14 14 25 31
12 5 8 16 15 18 29 24 18 16 14 15 11 12 16 11 11 6 8 12 13 11 12 9 14 14 11 16 24 18 12 11 8 18 15 7 7 10 10 7 9 17 5 8
6 6 10 13 19 29 24 23 16 16 12 14 17 13 14 12 12 7 8 10 13 13 12 13 10 18 15 19 22 20 11 7 10 6 13 15 15 6 6 10 10 8 13 11
10 8 13 22 27 26 17 25 19 15 17 12 19 11 11 10 14 9 8 9 11 16 14 16 9 20 25 19 7 14 20 14 3 10 5 7 14 19 12 9 10 11 12 9
9 8 22 29 31 16 20 20 22 16 18 12 21 10 10 14 8 17 10 8 9 14 16 14 9 14 16 24 24 20 5 17 7 9 -3 8 11 17 18 15 17 22 13 12
6 22 32 36 19 16 23 20 17 16 14 16 8 12 15 15 14 17 9 8 8 13 15 16 10 11 12 13 7 11 19 0 13 -4 15 8 9 4 6 6 5 10 16 13
20 33 37 20 15 20 21 27 20 18 16 17 19 25 14 13 16 14 10 10 9 10 13 15 14 11 16 12 10 12 12 18 20 9 8 3 6 9 10 9 15 17 15 12
36 39 24 12 19 22 23 22 15 11 10 15 19 13 10 8 10 12 7 9 8 10 9 12 14 12 11 14 16 12 5 2 4 8 10 12 15 11 15 22 18 22 13 15
37 25 12 15 20 24 22 18 21 21 19 9 3 6 12 13 14 14 11 9 7 9 6 11 12 12 13 14 9 9 11 12 16 14 16 14 7 20 15 16 20 18 14 13
27 12 12 19 24 24 23 18 15 12 12 8 8 14 14 14 15 14 15 11 7 8 8 10 10 10 15 16 17 13 10 11 10 11 11 11 7 10 13 11 14 17 20 18
12 10 19 25 15 17 14 13 12 10 10 12 10 11 11 12 12 15 16 16 10 8 8 10 7 13 11 13 14 16 18 15 11 9 11 10 10 7 5 7 10 12 13 13
8 14 20 21 18 13 16 14 12 10 11 12 12 12 9 10 10 8 9 13 13 13 11 8 11 9 9 10 11 11 12 14 16 16 13 11 9 8 9 9 10 9 9 9
13 22 18 17 16 16 16 17 17 18 19 19 17 15 12 10 10 10 9 10 9 10 13 12 9 7 7 10 10 10 12 12 13 14 13 14 13 12 12 10 9 8 10 11
21 21 18 16 16 15 14 12 9 7 8 9 9 11 17 23 22 17 11 10 11 10 10 9 7 8 8 8 10 11 11 11 13 13 12 13 14 14 13 13 13 14 12 10
24 17 18 16 16 15 16 17 18 19 19 17 16 16 15 16 13 16 18 14 12 11 13 10 4 10 9 7 8 10 11 11 12 12 13 13 13 14 13 13 13 13 13 14
Height
5645 5634 5624 5612 5602 5591 5578 5567 5555 5545 5533 5524 5512 5501 5493 5487 5480 5473 5469 5467 5463 5462 5464 5468 5469 5472 5477 5484 5491 5497 5499 5505 5511 5520 5528 5535 5541 5546 5549 5553 5561 5565 5568 5573
5632 5621 5609 5599 5588 5577 5567 5555 5542 5531 5523 5514 5503 5493 5483 5475 5470 5465 5461 5457 5454 5452 5452 5455 5455 5457 5461 5468 5474 5480 5485 5486 5496 5507 5517 5521 5525 5527 5532 5540 5545 5547 5555 5559
5619 5608 5597 5587 5575 5564 5553 5543 5532 5521 5510 5502 5494 5487 5479 5470 5462 5457 5453 5450 5447 5445 5443 5443 5444 5444 5447 5452 5459 5465 5470 5476 5481 5489 5493 5497 5507 5512 5518 5526 5533 5538 5541 5545
5606 5595 5586 5576 5565 5553 5542 5533 5522 5512 5503 5494 5486 5479 5471 5462 5457 5452 5447 5445 5441 5439 5437 5436 5435 5436 5437 5439 5444 5450 5455 5461 5468 5474 5478 5481 5489 5495 5505 5509 5515 5522 5526 5531
5596 5586 5574 5563 5555 5543 5533 5523 5514 5504 5494 5486 5480 5472 5464 5456 5451 5445 5441 5437 5435 5433 5432 5431 5430 5429 5429 5430 5432 5437 5441 5446 5452 5460 5465 5471 5472 5481 5489 5494 5501 5506 5510 5516
5586 5575 5563 5552 5543 5533 5523 5514 5505 5496 5487 5479 5473 5466 5458 5451 5445 5441 5434 5431 5429 5428 5427 5427 5425 5424 5423 5424 5425 5425 5429 5433 5438 5445 5449 5456 5462 5468 5476 5481 5487 5493 5498 5504
5576 5565 5554 5542 5532 5524 5514 5504 5495 5487 5480 5471 5464 5458 5452 5445 5438 5434 5428 5426 5424 5424 5423 5423 5421 5420 5420 5419 5419 5419 5419 5421 5426 5430 5433 5441 5445 5453 5459 5465 5472 5479 5486 5493
5566 5554 5544 5532 5522 5513 5504 5494 5485 5477 5471 5464 5458 5452 5446 5440 5433 5428 5424 5423 5421 5420 5419 5419 5418 5417 5416 5416 5415 5415 5414 5414 5415 5419 5422 5426 5431 5438 5444 5449 5457 5461 5469 5476
5555 5545 5533 5522 5513 5502 5493 5483 5474 5466 5461 5457 5451 5446 5441 5436 5429 5423 5420 5418 5416 5415 5415 5415 5415 5414 5413 5413 5412 5411 5411 5410 5411 5412 5413 5415 5418 5423 5427 5431 5440 5446 5452 5459
5544 5533 5522 5511 5502 5490 5481 5472 5462 5455 5451 5446 5442 5438 5433 5429 5424 5419 5415 5413 5411 5410 5409 5409 5409 5409 5409 5409 5408 5408 5407 5406 5407 5406 5405 5407 5408 5411 5411 5425 5432 5433 5438 5444
5534 5521 5511 5500 5491 5478 5470 5461 5451 5445 5441 5437 5433 5430 5426 5422 5418 5414 5410 5408 5405 5404 5403 5402 5401 5401 5401 5402 5402 5402 5403 5402 5401 5402 5401 5403 5403 5404 5408 5409 5413 5418 5425 5430
5521 5511 5499 5488 5478 5465 5457 5449 5440 5435 5431 5428 5425 5422 5418 5415 5412 5408 5404 5402 5399 5397 5396 5394 5394 5394 5394 5394 5395 5396 5398 5397 5397 5398 5397 5397 5397 5399 5399 5402 5404 5406 5410 5417
5511 5499 5488 5475 5465 5454 5445 5437 5430 5426 5423 5420 5417 5414 5411 5408 5406 5402 5399 5396 5394 5392 5390 5388 5387 5386 5385 5386 5387 5388 5390 5390 5391 5392 5393 5393 5394 5395 5395 5396 5399 5400 5403 5406
5498 5488 5476 5463 5452 5442 5433 5427 5420 5417 5414 5412 5410 5406 5404 5401 5399 5397 5394 5391 5388 5386 5385 5383 5382 5380 5379 5378 5378 5380 5383 5384 5385 5386 5387 5388 5389 5390 5392 5393 5394 5396 5397 5400
5487 5475 5462 5450 5439 5430 5422 5416 5411 5407 5407 5403 5401 5399 5396 5394 5392 5391 5388 5385 5383 5381 5380 5378 5377 5375 5373 5372 5372 5374 5376 5379 5381 5382 5382 5383 5384 5385 5386 5387 5389 5390 5392 5393
5474 5461 5449 5436 5425 5417 5412 5407 5402 5398 5396 5395 5393 5391 5389 5388 5386 5384 5382 5380 5378 5376 5375 5373 5372 5370 5368 5368 5369 5371 5371 5374 5376 5377 5378 5379 5379 5380 5381 5382 5383 5384 5386 5387
5461 5448 5436 5424 5414 5408 5402 5398 5393 5390 5388 5387 5385 5384 5382 5381 5379 5378 5377 5375 5373 5372 5370 5369 5368 5366 5366 5365 5366 5367 5368 5370 5371 5373 5374 5374 5374 5374 5375 5376 5376 5377 5378 5380
5448 5434 5422 5412 5405 5398 5392 5387 5384 5382 5381 5379 5378 5377 5376 5374 5373 5373 5371 5370 5369 5367 5366 5365 5364 5364 5363 5363 5363 5363 5364 5365 5366 5368 5368 5369 5369 5369 5369 5369 5370 5370 5371 5372
5434 5420 5410 5403 5397 5391 5386 5381 5377 5375 5375 5372 5372 5370 5370 5369 5368 5367 5367 5366 5365 5364 5362 5361 5361 5360 5359 5359 5359 5360 5360 5361 5361 5362 5363 5363 5363 5363 5363 5363 5363 5363 5364 5365
5419 5408 5402 5395 5389 5382 5378 5373 5371 5370 5368 5367 5366 5366 5365 5365 5363 5363 5363 5362 5361 5360 5359 5357 5356 5356 5355 5355 5355 5355 5356 5356 5357 5357 5357 5357 5357 5356 5356 5356 5356 5356 5357 5358
5409 5401 5395 5388 5381 5376 5371 5368 5367 5365 5364 5364 5363 5362 5361 5360 5359 5358 5358 5357 5357 5356 5356 5354 5353 5352 5351 5351 5351 5350 5350 5350 5351 5351 5351 5351 5351 5350 5350 5349 5349 5350 5351 5352
5401 5396 5388 5381 5375 5370 5367 5364 5362 5361 5360 5359 5358 5357 5355 5355 5353 5353 5353 5352 5352 5352 5351 5350 5349 5348 5347 5346 5346 5346 5345 5345 5345 5346 5346 5346 5346 5345 5345 5345 5344 5344 5345 5346
5395 5389 5382 5376 5371 5366 5362 5360 5358 5357 5356 5354 5353 5352 5351 5350 5349 5348 5348 5347 5347 5347 5347 5346 5345 5344 5343 5342 5342 5341 5340 5340 5340 5340 5341 5341 5341 5341 5341 5341 5341 5341 5341 5341
5390 5383 5376 5371 5365 5361 5358 5356 5353 5352 5350 5348 5347 5346 5345 5344 5344 5343 5343 5342 5342 5342 5342 5341 5341 5340 5339 5338 5338 5337 5336 5336 5335 5335 5335 5335 5336 5336 5336 5336 5336 5336 5336 5336
5385 5378 5371 5365 5361 5357 5354 5351 5347 5345 5343 5341 5340 5339 5339 5338 5337 5337 5337 5337 5336 5336 5336 5336 5335 5335 5335 5334 5333 5332 5332 5331 5331 5330 5330 5330 5330 5330 5330 5330 5330 5330 5331 5331
5379 5372 5367 5362 5357 5353 5350 5346 5343 5340 5338 5336 5334 5332 5331 5330 5330 5330 5329 5330 5330 5330 5330 5330 5330 5330 5330 5329 5329 5328 5327 5326 5326 5325 5325 5325 5325 5325 5325 5325 5325 5325 5325 5325
5375 5369 5364 5359 5355 5350 5346 5342 5339 5335 5332 5330 5327 5326 5325 5324 5323 5323 5322 5322 5323 5323 5323 5324 5324 5324 5324 5324 5323 5323 5322 5322 5321 5321 5320 5320 5320 5320 5320 5319 5319 5319 5319 5319